Starlink 32358

operational
NORAD ID: 61531 Int'l Des: 2024-183 Owner: SPXS Country: US Constellation: starlink
LEOCIRCULAR

About Starlink 32358

Description loading...

Live Position

Loading 3D Globe...

Upcoming Passes

Altitude History

Altitude vs Time

uPlot chart will show altitude changes over time

Two-Line Element Set

1 61531U 24183Y 25277.65818663 .00000500 00000-0 29026-4 0 9998
2 61531 53.1593 147.1792 0001409 80.6084 279.5076 15.30191406 55764
Epoch: Oct 4, 2025 • Age: 11 hours

Current Status

Altitude 480.8 km
Velocity 7.63 km/s
Sub-Earth Point 53.01°N, 165.42°E
Launch Date Oct 15, 2024
Age 0.9 years
Type internet

Technical Details

Classification Payload
Mass 730.00 kg
Dry Mass 700.00 kg
Total Mass 730.00 kg
Length 0.30 m
Diameter 4.10 m
Span 29.00 m
Shape Box + pan
Manufacturer SPXS
Bus Type Starlink V2M
Phase Status In Orbit
Owner/State SPXS/US

Large Constellations

Loading constellations...